Volver al catálogo

CZ-4C DEB

ActivoSSO
NORAD 38657·DEBRIS·🇨🇳 China

Lanzado Dec 15, 2009 desde Taiyuan Satellite Launch Center

Loading…

Próximos Pases (próximas 24 horas)

TLE

ActualizadoSource: Space-Track

Época: Sep 12, 2026, 11:34 UTC

1 38657U 09072E   26255.48195812  .00000101  00000-0  32955-3 0  9994
2 38657 100.2644 344.3176 0133373 200.2223 224.6936 13.23068640804059

Sigue CZ-4C DEB en tiempo real con AllMySat

Download on the App Store